Vorticity
1 10 10 9 12 10 11 10 11 10 8 10 12 11 14 1 18 9 4 19 13 17
15 8 10 12 11 12 10 11 11 12 14 17 18 26 10 6 30 22 15 10 3 11
7 13 10 9 10 11 11 11 15 17 18 15 17 16 17 13 6 12 8 10 11 12
10 6 8 11 9 9 11 15 15 16 16 17 14 10 12 5 9 5 8 11 13 9
6 8 8 8 9 11 12 12 15 18 17 15 14 12 6 7 6 1 9 11 10 9
7 8 7 7 10 11 12 14 17 15 17 19 13 12 5 6 6 10 7 10 11 6
6 7 7 9 11 12 11 13 20 19 19 7 19 6 1 8 6 7 11 11 7 8
7 7 8 12 12 12 11 16 17 17 12 20 4 -3 9 6 8 9 11 8 10 11
6 7 10 12 11 13 11 15 16 14 13 12 16 -7 7 7 8 12 9 11 11 9
6 9 12 12 10 13 13 12 15 15 11 9 8 11 5 10 14 9 11 11 8 9
8 12 13 10 11 15 14 14 15 13 14 14 17 16 13 12 8 10 14 9 9 11
12 13 13 9 14 12 17 17 13 12 11 8 8 8 7 9 10 16 11 10 11 11
15 13 11 9 14 13 20 14 11 9 7 8 7 7 12 11 16 12 10 10 11 11
15 12 7 13 12 16 16 10 10 9 9 7 7 11 12 15 14 10 11 10 11 12
Height
3127 3121 3116 3110 3104 3098 3091 3085 3079 3073 3067 3061 3056 3051 3046 3040 3036 3032 3028 3024 3019 3014
3120 3115 3110 3104 3097 3090 3084 3077 3071 3066 3060 3053 3047 3042 3038 3034 3028 3024 3019 3016 3011 3007
3113 3108 3102 3095 3088 3082 3076 3069 3062 3055 3049 3044 3039 3034 3029 3024 3020 3016 3013 3009 3004 3000
3105 3098 3092 3085 3078 3071 3065 3058 3051 3044 3039 3034 3030 3026 3021 3017 3014 3011 3007 3002 2997 2993
3095 3089 3082 3075 3069 3062 3055 3048 3041 3036 3031 3026 3022 3018 3016 3013 3009 3005 3000 2995 2991 2987
3086 3080 3073 3067 3060 3053 3047 3040 3033 3028 3023 3019 3016 3013 3011 3007 3003 2999 2994 2989 2984 2980
3078 3072 3066 3060 3053 3046 3039 3033 3027 3020 3016 3013 3011 3008 3005 3001 2997 2992 2987 2982 2977 2972
3072 3066 3059 3052 3045 3039 3032 3026 3020 3015 3011 3009 3006 3003 2999 2995 2990 2985 2979 2975 2969 2964
3064 3058 3051 3045 3038 3032 3025 3019 3013 3009 3006 3003 3000 2997 2992 2988 2984 2978 2972 2966 2961 2955
3056 3050 3043 3037 3031 3025 3019 3013 3008 3004 3000 2997 2994 2990 2986 2982 2977 2971 2965 2959 2953 2948
3048 3042 3036 3030 3024 3018 3012 3008 3003 2998 2994 2991 2987 2983 2980 2976 2971 2965 2958 2952 2946 2940
3039 3033 3028 3022 3016 3011 3006 3001 2997 2993 2989 2985 2981 2978 2974 2969 2964 2958 2953 2947 2940 2933
3031 3025 3020 3014 3009 3004 2999 2995 2991 2987 2984 2980 2976 2972 2967 2962 2957 2952 2947 2941 2934 2928
3023 3017 3012 3007 3002 2997 2993 2989 2985 2982 2978 2975 2971 2966 2961 2956 2951 2946 2941 2935 2930 2924